When you browse on this site, cookies collect data to enhance your experience and personalize the content and advertising you see.
Visit our Privacy Policy to learn more. By continuing to use the site, you agree to this use of cookies and data.
  • In Portugal
  • List of Countries
  • For 7 days
  • Water Temperature
  • Weather Map
  • Weather Widgets
  • user-avatar
    Login

    Hourly Weather Jarylowka

    Today, 5 June, Friday

    Time Temperature Precipitation Wind Pressure Humidity
    00:00 +9°C° 0 mm 1 mps 737 mmHg 85%
    01:00 +9°C° 0 mm 1 mps 737 mmHg 86%
    02:00 +9°C° 0 mm 1 mps 737 mmHg 87%
    03:00 +8°C° 0 mm 2 mps 737 mmHg 87%
    04:00 +8°C° 0 mm 2 mps 737 mmHg 88%
    05:00 +8°C° 0 mm 2 mps 736 mmHg 88%
    06:00 +10°C° 0 mm 3 mps 737 mmHg 84%
    07:00 +12°C° 0 mm 4 mps 737 mmHg 80%
    08:00 +14°C° 0 mm 4 mps 737 mmHg 74%
    09:00 +15°C° 0 mm 5 mps 737 mmHg 71%
    10:00 +17°C° 0 mm 5 mps 736 mmHg 69%
    11:00 +19°C° 0 mm 6 mps 736 mmHg 66%
    12:00 +20°C° 0 mm 6 mps 736 mmHg 68%
    13:00 +21°C° 0 mm 6 mps 736 mmHg 70%
    14:00 +21°C° 0 mm 6 mps 735 mmHg 71%
    15:00 +21°C° 0.5 mm 6 mps 735 mmHg 75%
    16:00 +21°C° 0.5 mm 5 mps 735 mmHg 79%
    17:00 +21°C° 0.5 mm 5 mps 735 mmHg 83%
    18:00 +20°C° 0.5 mm 5 mps 735 mmHg 85%
    19:00 +19°C° 0.5 mm 5 mps 736 mmHg 88%
    20:00 +18°C° 0.5 mm 4 mps 736 mmHg 90%
    21:00 +17°C° 0.5 mm 4 mps 736 mmHg 92%
    22:00 +17°C° 0.5 mm 3 mps 736 mmHg 94%
    23:00 +16°C° 0.5 mm 3 mps 737 mmHg 97%

    Tomorrow, 6 June, Saturday

    Time Temperature Precipitation Wind Pressure Humidity
    00:00 +16°C° 2.5 mm 3 mps 737 mmHg 97%
    01:00 +16°C° 2.5 mm 3 mps 737 mmHg 97%
    02:00 +14°C° 2.5 mm 3 mps 737 mmHg 98%
    03:00 +14°C° 0.4 mm 3 mps 738 mmHg 97%
    04:00 +13°C° 0.4 mm 3 mps 738 mmHg 97%
    05:00 +13°C° 0.4 mm 3 mps 738 mmHg 97%
    06:00 +14°C° 0 mm 4 mps 739 mmHg 92%
    07:00 +15°C° 0 mm 5 mps 739 mmHg 87%
    08:00 +16°C° 0 mm 6 mps 740 mmHg 82%
    09:00 +17°C° 0 mm 6 mps 741 mmHg 76%
    10:00 +19°C° 0 mm 6 mps 741 mmHg 70%
    11:00 +20°C° 0 mm 7 mps 742 mmHg 64%
    12:00 +19°C° 0 mm 6 mps 742 mmHg 65%
    13:00 +19°C° 0 mm 6 mps 743 mmHg 66%
    14:00 +19°C° 0 mm 5 mps 743 mmHg 67%
    15:00 +20°C° 0 mm 5 mps 743 mmHg 65%
    16:00 +21°C° 0 mm 5 mps 744 mmHg 63%
    17:00 +21°C° 0 mm 5 mps 744 mmHg 61%
    18:00 +20°C° 0 mm 4 mps 744 mmHg 66%
    19:00 +19°C° 0 mm 3 mps 744 mmHg 72%
    20:00 +18°C° 0 mm 2 mps 744 mmHg 77%
    21:00 +17°C° 0 mm 2 mps 744 mmHg 81%
    22:00 +16°C° 0 mm 3 mps 745 mmHg 84%
    23:00 +16°C° 0 mm 3 mps 745 mmHg 88%

    Day after tomorrow, 7 June, Sunday

    Time Temperature Precipitation Wind Pressure Humidity
    00:00 +14°C° 0 mm 3 mps 745 mmHg 89%
    01:00 +14°C° 0 mm 3 mps 745 mmHg 89%
    02:00 +14°C° 0 mm 3 mps 746 mmHg 90%
    03:00 +14°C° 0 mm 3 mps 745 mmHg 89%
    04:00 +14°C° 0 mm 3 mps 745 mmHg 89%
    05:00 +14°C° 0 mm 3 mps 745 mmHg 89%
    06:00 +15°C° 0.1 mm 4 mps 745 mmHg 86%
    07:00 +17°C° 0.1 mm 5 mps 745 mmHg 84%
    08:00 +19°C° 0.1 mm 6 mps 745 mmHg 81%
    09:00 +20°C° 0.3 mm 6 mps 745 mmHg 82%
    10:00 +20°C° 0.3 mm 6 mps 745 mmHg 83%
    11:00 +21°C° 0.3 mm 6 mps 745 mmHg 83%
    12:00 +23°C° 0 mm 6 mps 744 mmHg 77%
    13:00 +24°C° 0 mm 7 mps 744 mmHg 71%
    14:00 +27°C° 0 mm 7 mps 744 mmHg 65%
    15:00 +27°C° 0 mm 7 mps 744 mmHg 65%
    16:00 +27°C° 0 mm 6 mps 743 mmHg 65%
    17:00 +27°C° 0 mm 6 mps 743 mmHg 66%
    18:00 +26°C° 0.2 mm 5 mps 743 mmHg 71%
    19:00 +23°C° 0.2 mm 4 mps 743 mmHg 77%
    20:00 +22°C° 0.2 mm 4 mps 743 mmHg 83%
    21:00 +21°C° 0.4 mm 3 mps 744 mmHg 86%
    22:00 +20°C° 0.4 mm 3 mps 744 mmHg 89%
    23:00 +20°C° 0.4 mm 3 mps 744 mmHg 93%

    8 June, Monday

    Time Temperature Precipitation Wind Pressure Humidity
    00:00 +19°C° 0 mm 3 mps 744 mmHg 94%
    01:00 +19°C° 0 mm 3 mps 744 mmHg 95%
    02:00 +18°C° 0 mm 3 mps 745 mmHg 96%
    03:00 +18°C° 0 mm 3 mps 744 mmHg 96%
    04:00 +18°C° 0 mm 3 mps 744 mmHg 96%
    05:00 +18°C° 0 mm 3 mps 744 mmHg 96%
    06:00 +19°C° 0 mm 4 mps 744 mmHg 92%
    07:00 +20°C° 0 mm 4 mps 744 mmHg 88%
    08:00 +21°C° 0 mm 4 mps 745 mmHg 84%
    09:00 +23°C° 0 mm 5 mps 745 mmHg 76%
    10:00 +26°C° 0 mm 5 mps 745 mmHg 68%
    11:00 +27°C° 0 mm 6 mps 745 mmHg 60%
    12:00 +28°C° 0 mm 6 mps 745 mmHg 59%
    13:00 +28°C° 0 mm 6 mps 745 mmHg 58%
    14:00 +28°C° 0 mm 6 mps 745 mmHg 58%
    15:00 +28°C° 0 mm 6 mps 745 mmHg 60%
    16:00 +28°C° 0 mm 5 mps 744 mmHg 62%
    17:00 +28°C° 0 mm 4 mps 744 mmHg 64%
    18:00 +26°C° 0 mm 4 mps 744 mmHg 70%
    19:00 +25°C° 0 mm 3 mps 744 mmHg 76%
    20:00 +22°C° 0 mm 3 mps 744 mmHg 82%
    21:00 +21°C° 0.2 mm 3 mps 744 mmHg 84%
    22:00 +20°C° 0.2 mm 3 mps 745 mmHg 87%
    23:00 +19°C° 0.2 mm 3 mps 745 mmHg 90%

    9 June, Tuesday

    Time Temperature Precipitation Wind Pressure Humidity
    00:00 +19°C° 0.6 mm 3 mps 745 mmHg 92%
    01:00 +19°C° 0.6 mm 3 mps 745 mmHg 93%
    02:00 +19°C° 0.6 mm 3 mps 744 mmHg 94%
    03:00 +18°C° 0.2 mm 3 mps 744 mmHg 95%
    04:00 +18°C° 0.2 mm 3 mps 744 mmHg 95%
    05:00 +18°C° 0.2 mm 3 mps 744 mmHg 96%
    06:00 +19°C° 0 mm 3 mps 745 mmHg 92%
    07:00 +21°C° 0 mm 3 mps 745 mmHg 89%
    08:00 +22°C° 0 mm 3 mps 745 mmHg 85%
    09:00 +25°C° 0.7 mm 4 mps 746 mmHg 79%
    10:00 +26°C° 0.7 mm 4 mps 746 mmHg 74%
    11:00 +27°C° 0.7 mm 4 mps 746 mmHg 68%
    12:00 +27°C° 1 mm 4 mps 746 mmHg 68%
    13:00 +27°C° 1 mm 3 mps 746 mmHg 68%
    14:00 +27°C° 1 mm 3 mps 746 mmHg 68%
    15:00 +27°C° 1 mm 2 mps 746 mmHg 70%
    16:00 +27°C° 1 mm 2 mps 746 mmHg 71%
    17:00 +26°C° 1 mm 1 mps 746 mmHg 73%
    18:00 +25°C° 0.6 mm 1 mps 746 mmHg 76%
    19:00 +24°C° 0.6 mm 1 mps 746 mmHg 80%
    20:00 +23°C° 0.6 mm 1 mps 746 mmHg 83%
    21:00 +21°C° 0.1 mm 2 mps 746 mmHg 85%
    22:00 +20°C° 0.1 mm 2 mps 747 mmHg 87%
    23:00 +20°C° 0.1 mm 2 mps 747 mmHg 89%

    10 June, Wednesday

    Time Temperature Precipitation Wind Pressure Humidity
    00:00 +19°C° 0.7 mm 2 mps 747 mmHg 90%
    01:00 +19°C° 0.7 mm 2 mps 746 mmHg 90%
    02:00 +19°C° 0.7 mm 2 mps 746 mmHg 91%
    03:00 +19°C° 0.6 mm 2 mps 746 mmHg 92%
    04:00 +19°C° 0.6 mm 2 mps 746 mmHg 93%
    05:00 +19°C° 0.6 mm 2 mps 746 mmHg 95%
    06:00 +19°C° 0.7 mm 2 mps 746 mmHg 94%
    07:00 +19°C° 0.7 mm 3 mps 746 mmHg 94%
    08:00 +20°C° 0.7 mm 3 mps 747 mmHg 94%
    09:00 +22°C° 0.7 mm 4 mps 747 mmHg 88%
    10:00 +23°C° 0.7 mm 4 mps 747 mmHg 82%
    11:00 +26°C° 0.7 mm 5 mps 747 mmHg 76%
    12:00 +26°C° 0.9 mm 5 mps 746 mmHg 76%
    13:00 +26°C° 0.9 mm 5 mps 746 mmHg 77%
    14:00 +26°C° 0.9 mm 5 mps 746 mmHg 77%
    15:00 +26°C° 1.4 mm 4 mps 746 mmHg 79%
    16:00 +26°C° 1.4 mm 4 mps 746 mmHg 80%
    17:00 +26°C° 1.4 mm 3 mps 746 mmHg 81%
    18:00 +25°C° 0.5 mm 3 mps 746 mmHg 84%
    19:00 +24°C° 0.5 mm 3 mps 746 mmHg 86%
    20:00 +22°C° 0.5 mm 3 mps 746 mmHg 89%
    21:00 +23°C° 0.4 mm 2 mps 746 mmHg 90%
    22:00 +21°C° 0.4 mm 2 mps 746 mmHg 91%
    23:00 +20°C° 0.4 mm 2 mps 746 mmHg 92%
    Show more